Location: Boussy-Saint-Antoine
(48.6830°N, 2.5330°E)
Time: 08:36:19
(UTC+02:00)

ITUPSAT 1 - Visible Passes

Search period start: 18 July 2019 00:00
Search period end: 28 July 2019 00:00
Orbit: 701 x 714 km, 98.6° (Epoch: 17 July)

Date Brightness Start Highest point End Pass type
(mag) Time Alt. Az. Time Alt. Az. Time Alt. Az.
18 Jul ? 04:08:43 10° ENE 04:10:25 12° NE 04:12:08 10° NNE visible
19 Jul ? 04:50:19 10° ESE 04:54:12 25° ENE 04:58:05 10° N visible
21 Jul ? 04:41:33 10° ESE 04:45:07 22° ENE 04:48:41 10° N visible
22 Jul ? 05:24:32 10° SE 05:29:06 48° ENE 05:33:40 10° N visible
23 Jul ? 04:32:50 10° E 04:36:03 18° ENE 04:39:16 10° NNE visible
24 Jul ? 05:15:33 10° SE 05:19:58 40° ENE 05:24:24 10° N visible
25 Jul ? 04:24:14 10° E 04:27:00 16° NE 04:29:46 10° NNE visible
26 Jul ? 05:06:37 10° SE 05:10:52 33° ENE 05:15:07 10° N visible
27 Jul ? 04:15:46 10° E 04:17:57 13° NE 04:20:08 10° NNE visible
